Weather History for KLXT - February, 2014

Change the Weather History Date:

Tuesday, February 25, 2014

  Actual Average (KMKC) Record (KMKC)
Temperature  
Mean Temperature 22 °F -  
Max Temperature 27 °F 44 °F 71 °F (1997)
Min Temperature 16 °F 27 °F 1 °F (2003)
Degree Days  
Heating Degree Days 44    
Moisture  
Dew Point 11 °F    
Average Humidity 64    
Maximum Humidity 77    
Minimum Humidity 51    
Precipitation  
Precipitation 0.00 in - - ()
Sea Level Pressure  
Sea Level Pressure 30.38 in    
Wind  
Wind Speed 10 mph (North)    
Max Wind Speed 15 mph    
Max Gust Speed 22 mph    
Visibility 9 miles    
Events Snow    
Averages and records for this station are not official NWS values.
T = Trace of Precipitation, MM = Missing Value Source: NWS Daily Summary

Daily Weather History Graph

Daily Weather History Graph

Search for Another Location

Airport or City:

Trip Planner

Search our weather history database for the weather conditions in past years. The results will help you decide how hot, cold, wet, or windy it might be!

Date:

Astronomy

Feb. 25, 2014 Rise Set
Actual Time 6:55 AM CST 6:05 PM CST
Civil Twilight 6:28 AM CST 6:32 PM CST
Nautical Twilight 5:57 AM CST 7:03 PM CST
Astronomical Twilight 5:26 AM CST 7:34 PM CST
Moon 3:49 AM CST (2/25) 2:13 PM CST (2/25)
Length of Visible Light 12h 04m
Length of Day
11h 10m
Waning Crescent, 18% of the Moon is Illuminated
Feb 25
Waning Crescent
Mar 1
New
Mar 8
First Quarter
Mar 16
Full
Mar 23
Last Quarter

Hourly Weather History & Observations

Time (CST) Temp. Windchill Dew Point Humidity Pressure Visibility Wind Dir Wind Speed Gust Speed Precip Events Conditions
12:53 AM 27.0 °F 20.5 °F 16.0 °F 63% 30.26 in 10.0 mi ENE 5.8 mph - N/A   Mostly Cloudy
1:53 AM 26.1 °F 15.6 °F 15.1 °F 63% 30.30 in 10.0 mi North 11.5 mph - N/A   Scattered Clouds
2:53 AM 27.0 °F 18.7 °F 15.1 °F 61% 30.30 in 10.0 mi North 8.1 mph - N/A   Overcast
3:53 AM 25.0 °F 15.5 °F 14.0 °F 63% 30.31 in 10.0 mi North 9.2 mph - N/A   Clear
4:53 AM 25.0 °F 15.5 °F 15.1 °F 66% 30.30 in 10.0 mi NNE 9.2 mph - N/A   Clear
5:53 AM 24.1 °F 13.7 °F 14.0 °F 65% 30.31 in 10.0 mi NNE 10.4 mph - N/A   Clear
6:53 AM 23.0 °F 13.9 °F 14.0 °F 68% 30.32 in 10.0 mi NE 8.1 mph - N/A   Partly Cloudy
7:53 AM 24.1 °F 14.4 °F 16.0 °F 71% 30.33 in 10.0 mi NE 9.2 mph - N/A   Clear
8:27 AM 25.0 °F 13.6 °F 17.1 °F 72% 30.30 in 10.0 mi NE 12.7 mph - N/A   Mostly Cloudy
8:53 AM 25.0 °F 13.1 °F 16.0 °F 69% 30.35 in 10.0 mi NE 13.8 mph - N/A   Overcast
9:53 AM 24.1 °F 12.5 °F 15.1 °F 69% 30.38 in 10.0 mi North 12.7 mph - N/A   Overcast
10:53 AM 25.0 °F 13.1 °F 14.0 °F 63% 30.39 in 10.0 mi North 13.8 mph - N/A   Overcast
11:53 AM 24.1 °F 13.1 °F 12.9 °F 62% 30.41 in 10.0 mi North 11.5 mph - N/A   Overcast
12:53 PM 24.1 °F 13.1 °F 12.0 °F 60% 30.40 in 10.0 mi North 11.5 mph - N/A   Overcast
1:53 PM 24.1 °F 13.1 °F 10.9 °F 57% 30.38 in 10.0 mi North 11.5 mph - N/A   Overcast
2:23 PM 24.1 °F 11.5 °F 10.0 °F 55% 30.32 in 10.0 mi North 15.0 mph - N/A   Overcast
2:53 PM 24.1 °F 12.0 °F 9.0 °F 53% 30.36 in 10.0 mi North 13.8 mph - N/A   Mostly Cloudy
3:53 PM 24.1 °F 12.5 °F 8.1 °F 51% 30.36 in 10.0 mi North 12.7 mph - N/A   Scattered Clouds
4:53 PM 21.9 °F 9.8 °F 7.0 °F 53% 30.35 in 10.0 mi North 12.7 mph - N/A   Overcast
5:53 PM 19.9 °F 6.2 °F 6.1 °F 55% 30.38 in 10.0 mi North 15.0 mph - N/A   Overcast
6:53 PM 19.9 °F 11.1 °F 6.1 °F 55% 30.39 in 10.0 mi North 6.9 mph - N/A   Overcast
7:53 PM 18.0 °F 4.2 °F 7.0 °F 62% 30.43 in 10.0 mi North 13.8 mph - N/A   Overcast
8:09 PM 18.0 °F 4.2 °F 7.0 °F 62% 30.39 in 10.0 mi NW 13.8 mph 19.6 mph N/A   Overcast
8:23 PM 18.0 °F 4.2 °F 7.0 °F 62% 30.40 in 10.0 mi NNW 13.8 mph - N/A   Overcast
8:53 PM 17.1 °F 2.5 °F 8.1 °F 68% 30.46 in 4.0 mi North 15.0 mph - 0.00 in Snow Light Snow
9:07 PM 16.0 °F 2.3 °F 9.0 °F 74% 30.42 in 2.0 mi NNW 12.7 mph - 0.00 in Snow Light Snow
9:14 PM 16.0 °F 3.6 °F 9.0 °F 74% 30.42 in 1.2 mi NNW 10.4 mph - 0.00 in Snow Light Snow
9:30 PM 16.0 °F 4.4 °F 10.0 °F 77% 30.42 in 3.0 mi NNW 9.2 mph - 0.00 in Snow Light Snow
9:38 PM 16.0 °F 6.3 °F 9.0 °F 74% 30.43 in 9.0 mi NNW 6.9 mph - 0.00 in Snow Light Snow
9:53 PM 16.0 °F 2.9 °F 9.0 °F 74% 30.49 in 10.0 mi NNW 11.5 mph - 0.00 in   Overcast
10:53 PM 16.0 °F 1.7 °F 5.0 °F 62% 30.49 in 9.0 mi NNW 13.8 mph - 0.00 in Snow Light Snow
11:53 PM 16.0 °F 1.7 °F 5.0 °F 62% 30.49 in 10.0 mi NNW 13.8 mph 21.9 mph 0.00 in   Overcast